Weather History for Aurora, IL

Change the Weather History Date:

Saturday, November 23, 2013

  Actual Average Record
Temperature  
Mean Temperature 19 °F 34 °F  
Max Temperature 25 °F 43 °F 63 °F (2003)
Min Temperature 13 °F 25 °F 13 °F (2013)
Degree Days  
Heating Degree Days 46 31  
Month to date heating degree days 593 578  
Since 1 July heating degree days 1166 1185  
Cooling Degree Days 0 0  
Month to date cooling degree days 0 0  
Year to date cooling degree days 745 655  
Moisture  
Dew Point 11 °F    
Average Humidity 67    
Maximum Humidity 88    
Minimum Humidity 46    
Precipitation  
Precipitation T in 0.09 in 0.60 in (2014)
Month to date precipitation 2.30 2.49  
Year to date precipitation 32.83 34.25  
Sea Level Pressure  
Sea Level Pressure 30.60 in    
Wind  
Wind Speed 14 mph (NW)    
Max Wind Speed 28 mph    
Max Gust Speed 36 mph    
Visibility 10 miles    
Events Snow    
T = Trace of Precipitation, MM = Missing Value Source: NWS Daily Summary

Daily Weather History Graph

Daily Weather History Graph

Search for Another Location

Airport:

Trip Planner

Search our weather history database for the weather conditions in past years. The results will help you decide how hot, cold, wet, or windy it might be!

Date:

Astronomy

Nov. 23, 2013 Rise Set
Actual Time 6:53 AM CST 4:27 PM CST
Civil Twilight 6:22 AM CST 4:57 PM CST
Nautical Twilight 5:48 AM CST 5:32 PM CST
Astronomical Twilight 5:15 AM CST 6:05 PM CST
Moon 9:57 PM CST (11/23) 11:08 AM CST (11/23)
Length of Visible Light 10h 35m
Length of Day
9h 34m
Waning Gibbous, 69% of the Moon is Illuminated
Nov 23
Waning Gibbous
Nov 25
Last Quarter
Dec 2
New
Dec 9
First Quarter
Dec 17
Full

Hourly Weather History & Observations

Time (CST) Temp. Windchill Dew Point Humidity Pressure Visibility Wind Dir Wind Speed Gust Speed Precip Events Conditions
12:52 AM 24.1 °F 16.0 °F 19.9 °F 84% 30.47 in 10.0 mi West 6.9 mph - N/A   Clear
1:52 AM 23.0 °F 13.1 °F 18.0 °F 81% 30.48 in 10.0 mi West 9.2 mph - N/A   Clear
2:52 AM 23.0 °F 12.4 °F 17.1 °F 78% 30.48 in 10.0 mi West 10.4 mph - N/A   Clear
3:52 AM 21.9 °F 13.4 °F 17.1 °F 82% 30.47 in 10.0 mi West 6.9 mph - N/A   Clear
4:52 AM 21.9 °F 11.7 °F 17.1 °F 82% 30.49 in 10.0 mi WNW 9.2 mph - N/A   Clear
5:52 AM 21.9 °F 10.4 °F 16.0 °F 78% 30.50 in 10.0 mi NW 11.5 mph - N/A   Clear
6:52 AM 21.9 °F 11.0 °F 16.0 °F 78% 30.51 in 10.0 mi NW 10.4 mph - N/A   Clear
7:52 AM 23.0 °F 9.2 °F 17.1 °F 78% 30.53 in 10.0 mi NW 17.3 mph - N/A   Overcast
8:09 AM 23.0 °F 8.3 °F 15.8 °F 74% 30.51 in 8.0 mi NNW 19.6 mph 27.6 mph N/A   Overcast
8:20 AM 23.0 °F 8.3 °F 15.8 °F 74% 30.52 in 10.0 mi North 19.6 mph 28.8 mph N/A   Overcast
8:52 AM 21.9 °F 6.5 °F 12.0 °F 66% 30.58 in 10.0 mi NNW 20.7 mph 32.2 mph N/A   Mostly Cloudy
9:52 AM 23.0 °F 6.9 °F 12.0 °F 63% 30.60 in 10.0 mi NNW 24.2 mph 31.1 mph N/A   Mostly Cloudy
10:14 AM 21.2 °F 4.5 °F 12.2 °F 68% 30.58 in 6.0 mi NNW 24.2 mph 29.9 mph 0.00 in Snow Light Snow
10:44 AM 21.2 °F 4.5 °F 10.4 °F 63% 30.59 in 10.0 mi NNW 24.2 mph 27.6 mph 0.00 in   Mostly Cloudy
10:52 AM 21.9 °F 5.5 °F 9.0 °F 58% 30.62 in 10.0 mi NNW 24.2 mph 31.1 mph 0.00 in   Mostly Cloudy
11:52 AM 21.9 °F 6.2 °F 8.1 °F 55% 30.61 in 10.0 mi North 21.9 mph 27.6 mph N/A   Mostly Cloudy
12:52 PM 23.0 °F 7.2 °F 7.0 °F 50% 30.62 in 10.0 mi NNW 23.0 mph 31.1 mph N/A   Partly Cloudy
1:52 PM 24.1 °F 8.7 °F 7.0 °F 48% 30.63 in 10.0 mi NNW 23.0 mph 32.2 mph N/A   Clear
2:52 PM 21.9 °F 6.2 °F 6.1 °F 51% 30.65 in 10.0 mi North 21.9 mph 27.6 mph N/A   Clear
3:52 PM 21.0 °F 6.2 °F 5.0 °F 50% 30.67 in 10.0 mi North 18.4 mph 26.5 mph N/A   Clear
4:52 PM 19.0 °F 6.1 °F 5.0 °F 54% 30.69 in 10.0 mi NNW 12.7 mph - N/A   Clear
5:52 PM 18.0 °F 6.1 °F 6.1 °F 60% 30.71 in 10.0 mi NNW 10.4 mph - N/A   Clear
6:52 PM 17.1 °F 5.8 °F 6.1 °F 62% 30.71 in 10.0 mi NNW 9.2 mph - N/A   Clear
7:52 PM 15.1 °F 4.2 °F 7.0 °F 70% 30.72 in 10.0 mi NW 8.1 mph - N/A   Clear
8:52 PM 15.1 °F 5.2 °F 7.0 °F 70% 30.74 in 10.0 mi WNW 6.9 mph - N/A   Clear
9:52 PM 14.0 °F 2.0 °F 6.1 °F 71% 30.73 in 10.0 mi NNW 9.2 mph - N/A   Clear
10:52 PM 14.0 °F 2.9 °F 6.1 °F 71% 30.74 in 10.0 mi NW 8.1 mph - N/A   Clear
11:52 PM 12.9 °F 1.6 °F 6.1 °F 74% 30.74 in 10.0 mi NW 8.1 mph - N/A   Clear